| time (UTC) | temp F | wind direction | speed MPH | gust MPH | rain 1hr in | rain 24hr in | rain mn in | humidity % | barometer mb |
| 20260507231748 | 67 | 293 | 8.0 | 13.0 | 0.00 | 0.00 | 0.00 | 30 | 1006.8 |
| 20260507230751 | 67 | 232 | 9.0 | 19.0 | 0.00 | 0.00 | 0.00 | 28 | 1006.7 |
| 20260507225751 | 67 | 271 | 10.0 | 16.0 | 0.00 | 0.00 | 0.00 | 28 | 1007.1 |
| 20260507224750 | 67 | 254 | 7.0 | 19.0 | 0.00 | 0.00 | 0.00 | 30 | 1007.1 |
| 20260507223749 | 67 | 267 | 14.0 | 19.0 | 0.00 | 0.00 | 0.00 | 28 | 1007.2 |
| 20260507222751 | 67 | 254 | 14.0 | 17.0 | 0.00 | 0.00 | 0.00 | 28 | 1007.3 |
| 20260507221753 | 67 | 277 | 10.0 | 20.0 | 0.00 | 0.00 | 0.00 | 28 | 1007.5 |
| 20260507220751 | 67 | 248 | 10.0 | 20.0 | 0.00 | 0.00 | 0.00 | 28 | 1007.6 |
| 20260507215756 | 66 | 273 | 9.0 | 28.0 | 0.00 | 0.00 | 0.00 | 29 | 1007.8 |
| 20260507214817 | 66 | 263 | 22.0 | 23.0 | 0.00 | 0.00 | 0.00 | 29 | 1007.8 |
| 20260507213741 | 66 | 271 | 21.0 | 25.0 | 0.00 | 0.00 | 0.00 | 29 | 1007.8 |
| 20260507212801 | 66 | 298 | 22.0 | 22.0 | 0.00 | 0.00 | 0.00 | 28 | 1008.0 |
| 20260507211742 | 65 | 266 | 14.0 | 18.0 | 0.00 | 0.00 | 0.00 | 28 | 1008.3 |
| 20260507210741 | 65 | 236 | 10.0 | 21.0 | 0.00 | 0.00 | 0.00 | 29 | 1008.5 |
| 20260507205740 | 65 | 269 | 17.0 | 19.0 | 0.00 | 0.00 | 0.00 | 27 | 1008.4 |
| 20260507204745 | 64 | 223 | 15.0 | 19.0 | 0.00 | 0.00 | 0.00 | 28 | 1008.6 |
| 20260507203746 | 62 | 268 | 10.0 | 15.0 | 0.00 | 0.00 | 0.00 | 29 | 1008.7 |
| 20260507202750 | 64 | 296 | 14.0 | 22.0 | 0.00 | 0.00 | 0.00 | 29 | 1008.8 |
| 20260507201750 | 63 | 257 | 9.0 | 18.0 | 0.00 | 0.00 | 0.00 | 29 | 1008.9 |
| 20260507200750 | 62 | 279 | 5.0 | 15.0 | 0.00 | 0.00 | 0.00 | 27 | 1009.2 |
| 20260507195755 | 63 | 315 | 6.0 | 18.0 | 0.00 | 0.00 | 0.00 | 25 | 1009.2 |
| 20260507194756 | 62 | 262 | 9.0 | 11.0 | 0.00 | 0.00 | 0.00 | 26 | 1009.2 |
| 20260507193756 | 62 | 254 | 6.0 | 16.0 | 0.00 | 0.00 | 0.00 | 28 | 1009.3 |
| 20260507192757 | 62 | 292 | 5.0 | 13.0 | 0.00 | 0.00 | 0.00 | 27 | 1009.4 |
| 20260507191744 | 61 | 293 | 14.0 | 15.0 | 0.00 | 0.00 | 0.00 | 27 | 1009.5 |
| 20260507190742 | 60 | 296 | 5.0 | 13.0 | 0.00 | 0.00 | 0.00 | 28 | 1009.6 |
| 20260507185743 | 60 | 315 | 11.0 | 13.0 | 0.00 | 0.00 | 0.00 | 27 | 1009.7 |
| 20260507184746 | 60 | 297 | 4.0 | 13.0 | 0.00 | 0.00 | 0.00 | 29 | 1009.7 |
| 20260507183745 | 59 | 221 | 6.0 | 10.0 | 0.00 | 0.00 | 0.00 | 29 | 1009.7 |
| 20260507182749 | 59 | 263 | 1.0 | 6.0 | 0.00 | 0.00 | 0.00 | 29 | 1009.6 |
| 20260507181751 | 59 | 296 | 6.0 | 13.0 | 0.00 | 0.00 | 0.00 | 28 | 1009.5 |
| 20260507180750 | 58 | 313 | 3.0 | 7.0 | 0.00 | 0.00 | 0.00 | 30 | 1009.7 |
| 20260507175751 | 57 | 300 | 3.0 | 5.0 | 0.00 | 0.00 | 0.00 | 29 | 1009.8 |
| 20260507174756 | 57 | 293 | 8.0 | 10.0 | 0.00 | 0.00 | 0.00 | 30 | 1009.9 |
| 20260507173741 | 56 | 277 | 1.0 | 5.0 | 0.00 | 0.00 | 0.00 | 29 | 1010.0 |
| 20260507172742 | 56 | 260 | 6.0 | 10.0 | 0.00 | 0.00 | 0.00 | 30 | 1010.1 |
| 20260507171744 | 56 | 238 | 0.0 | 8.0 | 0.00 | 0.00 | 0.00 | 29 | 1010.2 |
| 20260507170810 | 56 | 181 | 2.0 | 5.0 | 0.00 | 0.00 | 0.00 | 31 | 1009.4 |
| 20260507165751 | 55 | 263 | 9.0 | 9.0 | 0.00 | 0.00 | 0.00 | 31 | 1009.5 |
| 20260507164753 | 56 | 267 | 4.0 | 7.0 | 0.00 | 0.00 | 0.00 | 30 | 1009.6 |
| 20260507163753 | 55 | 50 | 1.0 | 4.0 | 0.00 | 0.00 | 0.00 | 32 | 1009.6 |
| 20260507162753 | 54 | 86 | 0.0 | 5.0 | 0.00 | 0.00 | 0.00 | 31 | 1009.7 |
| 20260507161818 | 54 | 86 | 3.0 | 3.0 | 0.00 | 0.00 | 0.00 | 32 | 1009.5 |
| 20260507160756 | 53 | 86 | 1.0 | 6.0 | 0.00 | 0.00 | 0.00 | 32 | 1009.6 |
| 20260507155740 | 51 | 156 | 0.0 | 6.0 | 0.00 | 0.00 | 0.00 | 32 | 1009.7 |
| 20260507154739 | 52 | 161 | 5.0 | 9.0 | 0.00 | 0.00 | 0.00 | 31 | 1009.6 |
| 20260507153747 | 51 | 123 | 6.0 | 10.0 | 0.00 | 0.00 | 0.00 | 32 | 1009.6 |
| 20260507152748 | 51 | 138 | 6.0 | 8.0 | 0.00 | 0.00 | 0.00 | 33 | 1009.6 |
| 20260507151748 | 50 | 132 | 2.0 | 7.0 | 0.00 | 0.00 | 0.00 | 34 | 1009.7 |
| 20260507150750 | 49 | 124 | 4.0 | 7.0 | 0.00 | 0.00 | 0.00 | 33 | 1009.8 |
| 20260507145754 | 49 | 114 | 4.0 | 7.0 | 0.00 | 0.00 | 0.00 | 35 | 1009.7 |
| 20260507144757 | 48 | 122 | 3.0 | 8.0 | 0.00 | 0.00 | 0.00 | 36 | 1009.7 |
| 20260507143757 | 46 | 99 | 4.0 | 9.0 | 0.00 | 0.00 | 0.00 | 36 | 1009.7 |
| 20260507142757 | 46 | 111 | 6.0 | 10.0 | 0.00 | 0.00 | 0.00 | 35 | 1009.7 |
| 20260507141740 | 45 | 114 | 6.0 | 8.0 | 0.00 | 0.00 | 0.00 | 36 | 1009.8 |
| 20260507140803 | 44 | 94 | 6.0 | 10.0 | 0.00 | 0.00 | 0.00 | 37 | 1009.7 |
| 20260507135742 | 43 | 82 | 2.0 | 7.0 | 0.00 | 0.00 | 0.00 | 38 | 1009.7 |
| 20260507134743 | 43 | 82 | 5.0 | 9.0 | 0.00 | 0.00 | 0.00 | 38 | 1009.5 |
| 20260507133744 | 42 | 67 | 2.0 | 5.0 | 0.00 | 0.00 | 0.00 | 43 | 1009.4 |
| 20260507132748 | 40 | 33 | 4.0 | 6.0 | 0.00 | 0.00 | 0.00 | 43 | 1009.4 |
| 20260507131750 | 39 | 30 | 5.0 | 6.0 | 0.00 | 0.00 | 0.00 | 42 | 1009.6 |
| 20260507130751 | 38 | 45 | 5.0 | 6.0 | 0.00 | 0.00 | 0.00 | 44 | 1009.5 |
| 20260507125753 | 37 | 37 | 4.0 | 7.0 | 0.00 | 0.00 | 0.00 | 44 | 1009.6 |
| 20260507124740 | 36 | 38 | 4.0 | 11.0 | 0.00 | 0.00 | 0.00 | 44 | 1009.4 |
| 20260507123741 | 36 | 47 | 9.0 | 11.0 | 0.00 | 0.00 | 0.00 | 45 | 1009.3 |
| 20260507122740 | 35 | 42 | 6.0 | 11.0 | 0.00 | 0.00 | 0.00 | 45 | 1009.2 |
| 20260507121800 | 35 | 57 | 6.0 | 11.0 | 0.00 | 0.00 | 0.00 | 45 | 1009.2 |
| 20260507120745 | 35 | 22 | 8.0 | 11.0 | 0.00 | 0.00 | 0.00 | 45 | 1009.1 |
| 20260507115745 | 34 | 13 | 4.0 | 10.0 | 0.00 | 0.00 | 0.00 | 46 | 1009.0 |
| 20260507114746 | 34 | 28 | 6.0 | 10.0 | 0.00 | 0.00 | 0.00 | 46 | 1009.0 |
| 20260507113744 | 34 | 37 | 5.0 | 10.0 | 0.00 | 0.00 | 0.00 | 46 | 1009.0 |
| 20260507112805 | 35 | 41 | 7.0 | 11.0 | 0.00 | 0.00 | 0.00 | 45 | 1009.0 |
| 20260507111747 | 36 | 36 | 9.0 | 12.0 | 0.00 | 0.00 | 0.00 | 43 | 1009.1 |
| 20260507110750 | 35 | 47 | 8.0 | 12.0 | 0.00 | 0.00 | 0.00 | 44 | 1009.0 |
| 20260507105810 | 35 | 42 | 7.0 | 9.0 | 0.00 | 0.00 | 0.00 | 45 | 1009.2 |
| 20260507104811 | 36 | 39 | 9.0 | 10.0 | 0.00 | 0.00 | 0.00 | 45 | 1009.2 |
| 20260507103751 | 36 | 40 | 5.0 | 10.0 | 0.00 | 0.00 | 0.00 | 44 | 1009.3 |
| 20260507102812 | 36 | 32 | 3.0 | 9.0 | 0.00 | 0.00 | 0.00 | 45 | 1009.4 |
| 20260507101754 | 36 | 30 | 5.0 | 10.0 | 0.00 | 0.00 | 0.00 | 45 | 1009.4 |
| 20260507100754 | 37 | 35 | 4.0 | 7.0 | 0.00 | 0.00 | 0.00 | 44 | 1009.5 |
| 20260507095753 | 37 | 33 | 4.0 | 7.0 | 0.00 | 0.00 | 0.00 | 43 | 1009.6 |
| 20260507094755 | 37 | 30 | 4.0 | 8.0 | 0.00 | 0.00 | 0.00 | 43 | 1009.8 |
| 20260507093803 | 37 | 28 | 4.0 | 7.0 | 0.00 | 0.00 | 0.00 | 44 | 1009.8 |
| 20260507092802 | 37 | 23 | 2.0 | 6.0 | 0.00 | 0.00 | 0.00 | 45 | 1009.5 |
| 20260507091742 | 37 | 21 | 0.0 | 5.0 | 0.00 | 0.00 | 0.00 | 46 | 1009.5 |
| 20260507090742 | 37 | 33 | 6.0 | 6.0 | 0.00 | 0.00 | 0.00 | 44 | 1009.6 |
| 20260507085742 | 38 | 34 | 6.0 | 9.0 | 0.00 | 0.00 | 0.00 | 44 | 1009.7 |
| 20260507084748 | 38 | 40 | 5.0 | 8.0 | 0.00 | 0.00 | 0.00 | 44 | 1008.7 |
| 20260507083749 | 38 | 37 | 6.0 | 10.0 | 0.00 | 0.00 | 0.00 | 44 | 1008.8 |
| 20260507082750 | 38 | 29 | 5.0 | 7.0 | 0.00 | 0.00 | 0.00 | 44 | 1008.8 |
| 20260507081749 | 38 | 36 | 4.0 | 6.0 | 0.00 | 0.00 | 0.00 | 46 | 1008.9 |
| 20260507080750 | 38 | 36 | 5.0 | 9.0 | 0.00 | 0.00 | 0.00 | 46 | 1008.8 |
| 20260507075815 | 36 | 36 | 9.0 | 9.0 | 0.00 | 0.00 | 0.00 | 50 | 1008.9 |
| 20260507074813 | 35 | 41 | 0.0 | 2.0 | 0.00 | 0.00 | 0.00 | 53 | 1008.9 |
| 20260507073814 | 35 | 41 | 2.0 | 3.0 | 0.00 | 0.00 | 0.00 | 53 | 1009.0 |
| 20260507072755 | 36 | 41 | 2.0 | 3.0 | 0.00 | 0.00 | 0.00 | 53 | 1008.9 |
| 20260507071754 | 36 | 41 | 1.0 | 4.0 | 0.00 | 0.00 | 0.00 | 51 | 1008.8 |
| 20260507070821 | 36 | 42 | 3.0 | 4.0 | 0.00 | 0.00 | 0.00 | 53 | 1008.8 |
| 20260507065800 | 36 | 42 | 1.0 | 3.0 | 0.00 | 0.00 | 0.00 | 53 | 1008.7 |
| 20260507064739 | 37 | 42 | 0.0 | 2.0 | 0.00 | 0.00 | 0.00 | 49 | 1008.7 |
| 20260507063741 | 37 | 42 | 1.0 | 2.0 | 0.00 | 0.00 | 0.00 | 49 | 1008.8 |
| 20260507062745 | 36 | 42 | 0.0 | 2.0 | 0.00 | 0.00 | 0.00 | 51 | 1008.9 |
| 20260507061750 | 36 | 42 | 0.0 | 4.0 | 0.00 | 0.00 | 0.00 | 50 | 1008.8 |
| 20260507060754 | 36 | 44 | 3.0 | 4.0 | 0.00 | 0.00 | 0.00 | 50 | 1008.7 |
| 20260507055753 | 37 | 44 | 3.0 | 4.0 | 0.00 | 0.00 | 0.00 | 47 | 1008.6 |
| 20260507054756 | 38 | 61 | 2.0 | 4.0 | 0.00 | 0.00 | 0.00 | 45 | 1008.5 |
| 20260507053743 | 40 | 62 | 3.0 | 4.0 | 0.00 | 0.00 | 0.00 | 44 | 1008.4 |
| 20260507052747 | 40 | 61 | 0.0 | 3.0 | 0.00 | 0.00 | 0.00 | 40 | 1008.4 |
| 20260507051747 | 41 | 62 | 0.0 | 3.0 | 0.00 | 0.00 | 0.00 | 40 | 1008.4 |
| 20260507050747 | 41 | 62 | 0.0 | 3.0 | 0.00 | 0.00 | 0.00 | 39 | 1008.4 |
| 20260507045751 | 41 | 62 | 2.0 | 5.0 | 0.00 | 0.00 | 0.00 | 39 | 1008.5 |
| 20260507044752 | 39 | 61 | 0.0 | 3.0 | 0.00 | 0.00 | 0.00 | 41 | 1008.4 |
| 20260507043811 | 41 | 61 | 3.0 | 3.0 | 0.00 | 0.00 | 0.00 | 42 | 1008.4 |
| 20260507042750 | 42 | 61 | 1.0 | 4.0 | 0.00 | 0.00 | 0.00 | 37 | 1008.3 |
| 20260507041753 | 43 | 61 | 2.0 | 6.0 | 0.00 | 0.00 | 0.00 | 36 | 1008.3 |
| 20260507040757 | 44 | 86 | 4.0 | 5.0 | 0.00 | 0.00 | 0.00 | 35 | 1008.3 |
| 20260507035800 | 45 | 90 | 6.0 | 8.0 | 0.00 | 0.00 | 0.00 | 35 | 1008.3 |
| 20260507034743 | 44 | 79 | 0.0 | 5.0 | 0.00 | 0.00 | 0.00 | 35 | 1008.4 |
| 20260507033745 | 45 | 78 | 4.0 | 6.0 | 0.00 | 0.00 | 0.00 | 35 | 1008.4 |
| 20260507032744 | 45 | 82 | 3.0 | 5.0 | 0.00 | 0.00 | 0.00 | 35 | 1008.5 |
| 20260507031808 | 46 | 82 | 4.0 | 6.0 | 0.00 | 0.00 | 0.00 | 34 | 1008.5 |
| 20260507030748 | 46 | 69 | 4.0 | 6.0 | 0.00 | 0.00 | 0.00 | 34 | 1008.6 |
| 20260507025747 | 46 | 67 | 2.0 | 5.0 | 0.00 | 0.00 | 0.00 | 33 | 1008.5 |
| 20260507024747 | 47 | 9 | 0.0 | 4.0 | 0.00 | 0.00 | 0.00 | 33 | 1008.6 |
| 20260507023747 | 48 | 9 | 2.0 | 5.0 | 0.00 | 0.00 | 0.00 | 31 | 1008.6 |
| 20260507022750 | 49 | 9 | 3.0 | 6.0 | 0.00 | 0.00 | 0.00 | 30 | 1008.7 |
| 20260507021815 | 49 | 9 | 2.0 | 3.0 | 0.00 | 0.00 | 0.00 | 31 | 1008.7 |
| 20260507020754 | 50 | 9 | 1.0 | 3.0 | 0.00 | 0.00 | 0.00 | 30 | 1008.9 |
| 20260507015818 | 51 | 9 | 1.0 | 4.0 | 0.00 | 0.00 | 0.00 | 29 | 1008.9 |
| 20260507014742 | 53 | 9 | 2.0 | 5.0 | 0.00 | 0.00 | 0.00 | 28 | 1009.1 |
| 20260507013742 | 54 | 315 | 0.0 | 3.0 | 0.00 | 0.00 | 0.00 | 27 | 1009.2 |
| 20260507012744 | 55 | 315 | 1.0 | 1.0 | 0.00 | 0.00 | 0.00 | 29 | 1009.2 |
| 20260507011747 | 56 | 315 | 0.0 | 1.0 | 0.00 | 0.00 | 0.00 | 25 | 1009.2 |
| 20260507010747 | 56 | 315 | 0.0 | 2.0 | 0.00 | 0.00 | 0.00 | 24 | 1009.3 |
| 20260507005811 | 57 | 315 | 3.0 | 7.0 | 0.00 | 0.00 | 0.00 | 27 | 1009.4 |
| 20260507004751 | 58 | 310 | 3.0 | 5.0 | 0.00 | 0.00 | 0.00 | 26 | 1009.5 |
| 20260507003752 | 58 | 317 | 2.0 | 5.0 | 0.00 | 0.00 | 0.00 | 23 | 1009.6 |
| 20260507002813 | 57 | 317 | 5.0 | 9.0 | 0.00 | 0.00 | 0.00 | 23 | 1009.6 |
| 20260507001752 | 57 | 336 | 1.0 | 9.0 | 0.00 | 0.00 | 0.00 | 24 | 1009.8 |
| 20260507000757 | 57 | 312 | 4.0 | 12.0 | 0.00 | 0.00 | 0.00 | 25 | 1009.9 |
| 20260506235756 | 57 | 320 | 0.0 | 7.0 | 0.00 | 0.00 | 0.00 | 25 | 1009.9 |
| 20260506234757 | 57 | 305 | 0.0 | 8.0 | 0.00 | 0.00 | 0.00 | 25 | 1009.9 |
| 20260506233758 | 57 | 294 | 8.0 | 8.0 | 0.00 | 0.00 | 0.00 | 25 | 1009.9 |
| 20260506232741 | 56 | 273 | 3.0 | 12.0 | 0.00 | 0.00 | 0.00 | 25 | 1010.0 |